Time,TemperatureF,DewpointF,PressureIn,WindDirection,WindDirectionDegrees,WindSpeedMPH,WindSpeedGustMPH,Humidity,HourlyPrecipIn,Conditions,Clouds,dailyrainin,SoftwareType,DateUTC
2013-08-12 00:01:00,51.3,37.4,30.23,SE,144,0.0,2.0,59,0.00,,,0.00,meteohub,2013-08-12 07:01:00,
2013-08-12 00:06:00,51.1,37.2,30.24,SE,144,0.0,2.0,59,0.00,,,0.00,meteohub,2013-08-12 07:06:00,
2013-08-12 00:11:00,50.7,36.9,30.23,SE,146,0.0,2.0,59,0.00,,,0.00,meteohub,2013-08-12 07:11:00,
2013-08-12 00:16:00,50.5,36.7,30.23,SE,146,0.0,1.0,59,0.00,,,0.00,meteohub,2013-08-12 07:16:00,
2013-08-12 00:21:00,50.4,37.0,30.23,SE,140,0.0,1.0,60,0.00,,,0.00,meteohub,2013-08-12 07:21:00,
2013-08-12 00:26:00,50.2,37.6,30.23,East,94,0.0,1.0,62,0.00,,,0.00,meteohub,2013-08-12 07:26:00,
2013-08-12 00:31:00,50.0,36.3,30.23,East,94,0.0,1.0,59,0.00,,,0.00,meteohub,2013-08-12 07:31:00,
2013-08-12 00:36:00,49.6,36.7,30.23,East,94,0.0,1.0,61,0.00,,,0.00,meteohub,2013-08-12 07:36:00,
2013-08-12 00:41:00,49.5,36.1,30.23,East,94,0.0,1.0,60,0.00,,,0.00,meteohub,2013-08-12 07:41:00,
2013-08-12 00:46:00,49.3,35.6,30.24,East,94,0.0,0.0,59,0.00,,,0.00,meteohub,2013-08-12 07:46:00,
2013-08-12 00:51:00,48.9,36.1,30.23,East,94,1.0,1.0,61,0.00,,,0.00,meteohub,2013-08-12 07:51:00,
2013-08-12 00:56:00,48.7,36.3,30.23,East,94,0.0,1.0,62,0.00,,,0.00,meteohub,2013-08-12 07:56:00,
2013-08-12 01:01:00,48.6,35.8,30.24,SE,138,0.0,1.0,61,0.00,,,0.00,meteohub,2013-08-12 08:01:00,
2013-08-12 01:06:00,48.4,35.1,30.23,SE,139,1.0,1.0,60,0.00,,,0.00,meteohub,2013-08-12 08:06:00,
2013-08-12 01:11:00,48.2,35.4,30.23,SSE,159,0.0,1.0,61,0.00,,,0.00,meteohub,2013-08-12 08:11:00,
2013-08-12 01:16:00,48.0,35.2,30.23,SSW,196,0.0,1.0,61,0.00,,,0.00,meteohub,2013-08-12 08:16:00,
2013-08-12 01:21:00,48.0,34.9,30.23,South,184,0.0,1.0,60,0.00,,,0.00,meteohub,2013-08-12 08:21:00,
2013-08-12 01:27:00,47.8,34.7,30.23,SSE,148,0.0,1.0,60,0.00,,,0.00,meteohub,2013-08-12 08:27:00,
2013-08-12 01:32:00,47.8,34.7,30.23,South,176,0.0,1.0,60,0.00,,,0.00,meteohub,2013-08-12 08:32:00,
2013-08-12 01:37:00,47.7,34.5,30.23,SSW,196,0.0,1.0,60,0.00,,,0.00,meteohub,2013-08-12 08:37:00,
2013-08-12 01:42:00,47.5,34.7,30.23,South,191,0.0,0.0,61,0.00,,,0.00,meteohub,2013-08-12 08:42:00,
2013-08-12 01:47:00,47.1,34.3,30.23,ESE,117,0.0,1.0,61,0.00,,,0.00,meteohub,2013-08-12 08:47:00,
2013-08-12 01:52:00,46.9,34.2,30.22,SE,146,2.0,2.0,61,0.00,,,0.00,meteohub,2013-08-12 08:52:00,
2013-08-12 01:57:00,46.8,34.0,30.22,SSE,160,0.0,2.0,61,0.00,,,0.00,meteohub,2013-08-12 08:57:00,
2013-08-12 02:02:00,46.8,34.0,30.22,SSE,163,0.0,2.0,61,0.00,,,0.00,meteohub,2013-08-12 09:02:00,
2013-08-12 02:07:00,46.6,33.8,30.22,SSE,164,0.0,2.0,61,0.00,,,0.00,meteohub,2013-08-12 09:07:00,
2013-08-12 02:12:00,46.4,34.2,30.22,SSE,168,0.0,1.0,62,0.00,,,0.00,meteohub,2013-08-12 09:12:00,
2013-08-12 02:17:00,46.2,34.0,30.22,SE,144,0.0,1.0,62,0.00,,,0.00,meteohub,2013-08-12 09:17:00,
2013-08-12 02:22:00,46.0,33.8,30.22,SE,144,0.0,1.0,62,0.00,,,0.00,meteohub,2013-08-12 09:22:00,
2013-08-12 02:27:00,45.9,33.3,30.22,SSW,192,0.0,1.0,61,0.00,,,0.00,meteohub,2013-08-12 09:27:00,
2013-08-12 02:32:00,45.7,33.1,30.22,SSE,150,0.0,1.0,61,0.00,,,0.00,meteohub,2013-08-12 09:32:00,
2013-08-12 02:37:00,45.7,33.1,30.22,SE,144,0.0,1.0,61,0.00,,,0.00,meteohub,2013-08-12 09:37:00,
2013-08-12 02:42:00,45.9,33.3,30.22,South,171,0.0,1.0,61,0.00,,,0.00,meteohub,2013-08-12 09:42:00,
2013-08-12 02:47:00,45.9,33.3,30.22,SSE,148,2.0,2.0,61,0.00,,,0.00,meteohub,2013-08-12 09:47:00,
2013-08-12 02:52:00,45.7,32.5,30.22,South,173,0.0,3.0,60,0.00,,,0.00,meteohub,2013-08-12 09:52:00,
2013-08-12 02:57:00,45.5,32.4,30.22,SE,142,0.0,3.0,60,0.00,,,0.00,meteohub,2013-08-12 09:57:00,
2013-08-12 03:02:00,45.3,32.7,30.22,SE,146,0.0,3.0,61,0.00,,,0.00,meteohub,2013-08-12 10:02:00,
2013-08-12 03:07:00,45.3,32.2,30.21,SE,139,0.0,1.0,60,0.00,,,0.00,meteohub,2013-08-12 10:07:00,
2013-08-12 03:12:00,45.1,32.5,30.22,SSE,156,0.0,1.0,61,0.00,,,0.00,meteohub,2013-08-12 10:12:00,
2013-08-12 03:17:00,45.1,32.5,30.22,SSW,205,0.0,1.0,61,0.00,,,0.00,meteohub,2013-08-12 10:17:00,
2013-08-12 03:22:00,45.0,32.0,30.22,SSE,163,0.0,1.0,60,0.00,,,0.00,meteohub,2013-08-12 10:22:00,
2013-08-12 03:27:00,44.8,31.8,30.22,SSE,150,0.0,1.0,60,0.00,,,0.00,meteohub,2013-08-12 10:27:00,
2013-08-12 03:32:00,44.6,32.0,30.22,South,183,0.0,1.0,61,0.00,,,0.00,meteohub,2013-08-12 10:32:00,
2013-08-12 03:37:00,44.4,31.5,30.22,SSE,151,0.0,1.0,60,0.00,,,0.00,meteohub,2013-08-12 10:37:00,
2013-08-12 03:42:00,44.2,31.6,30.22,SSE,156,0.0,1.0,61,0.00,,,0.00,meteohub,2013-08-12 10:42:00,
2013-08-12 03:47:00,44.2,31.3,30.22,SE,134,0.0,0.0,60,0.00,,,0.00,meteohub,2013-08-12 10:47:00,
2013-08-12 03:52:00,44.2,31.3,30.22,South,173,0.0,0.0,60,0.00,,,0.00,meteohub,2013-08-12 10:52:00,
2013-08-12 03:57:00,44.1,30.7,30.22,SSE,167,1.0,2.0,59,0.00,,,0.00,meteohub,2013-08-12 10:57:00,
2013-08-12 04:02:00,43.9,30.9,30.22,SSE,159,0.0,2.0,60,0.00,,,0.00,meteohub,2013-08-12 11:02:00,
2013-08-12 04:07:00,43.7,30.7,30.22,South,172,0.0,2.0,60,0.00,,,0.00,meteohub,2013-08-12 11:07:00,
2013-08-12 04:12:00,43.5,30.6,30.22,SSE,164,1.0,2.0,60,0.00,,,0.00,meteohub,2013-08-12 11:12:00,
2013-08-12 04:17:00,43.3,30.4,30.22,SSE,153,0.0,2.0,60,0.00,,,0.00,meteohub,2013-08-12 11:17:00,
2013-08-12 04:22:00,43.2,30.2,30.22,SW,230,0.0,2.0,60,0.00,,,0.00,meteohub,2013-08-12 11:22:00,
2013-08-12 04:27:00,43.2,30.2,30.22,South,178,0.0,2.0,60,0.00,,,0.00,meteohub,2013-08-12 11:27:00,
2013-08-12 04:32:00,43.0,30.0,30.22,SSE,161,0.0,1.0,60,0.00,,,0.00,meteohub,2013-08-12 11:32:00,
2013-08-12 04:37:00,42.8,29.8,30.22,SSE,153,0.0,1.0,60,0.00,,,0.00,meteohub,2013-08-12 11:37:00,
2013-08-12 04:42:00,42.6,29.7,30.22,SSE,150,0.0,1.0,60,0.00,,,0.00,meteohub,2013-08-12 11:42:00,
2013-08-12 04:47:00,42.4,29.5,30.22,SE,142,1.0,1.0,60,0.00,,,0.00,meteohub,2013-08-12 11:47:00,
2013-08-12 04:52:00,42.4,29.5,30.22,SSE,153,0.0,2.0,60,0.00,,,0.00,meteohub,2013-08-12 11:52:00,
2013-08-12 04:57:00,42.6,29.7,30.22,South,173,0.0,2.0,60,0.00,,,0.00,meteohub,2013-08-12 11:57:00,
2013-08-12 05:02:00,42.6,29.3,30.22,SSE,156,0.0,2.0,59,0.00,,,0.00,meteohub,2013-08-12 12:02:00,
2013-08-12 05:07:00,42.6,28.9,30.22,SSE,148,0.0,2.0,58,0.00,,,0.00,meteohub,2013-08-12 12:07:00,
2013-08-12 05:12:00,42.6,28.9,30.22,SSE,149,0.0,2.0,58,0.00,,,0.00,meteohub,2013-08-12 12:12:00,
2013-08-12 05:17:00,42.4,28.8,30.22,SE,146,0.0,1.0,58,0.00,,,0.00,meteohub,2013-08-12 12:17:00,
2013-08-12 05:22:00,42.4,28.8,30.22,SSE,161,0.0,1.0,58,0.00,,,0.00,meteohub,2013-08-12 12:22:00,
2013-08-12 05:27:00,42.4,28.2,30.22,SSE,148,0.0,1.0,57,0.00,,,0.00,meteohub,2013-08-12 12:27:00,
2013-08-12 05:32:00,42.4,28.2,30.22,SSE,153,0.0,1.0,57,0.00,,,0.00,meteohub,2013-08-12 12:32:00,
2013-08-12 05:37:00,42.4,28.8,30.22,South,171,0.0,1.0,58,0.00,,,0.00,meteohub,2013-08-12 12:37:00,
2013-08-12 05:42:00,42.4,28.2,30.22,SE,146,0.0,1.0,57,0.00,,,0.00,meteohub,2013-08-12 12:42:00,
2013-08-12 05:47:00,42.6,28.4,30.22,South,173,0.0,1.0,57,0.00,,,0.00,meteohub,2013-08-12 12:47:00,
2013-08-12 05:52:00,42.6,28.0,30.22,SSE,148,1.0,1.0,56,0.00,,,0.00,meteohub,2013-08-12 12:52:00,
2013-08-12 05:57:00,42.6,28.0,30.22,SSE,151,0.0,2.0,56,0.00,,,0.00,meteohub,2013-08-12 12:57:00,
2013-08-12 06:02:00,42.6,28.4,30.23,SSE,153,0.0,2.0,57,0.00,,,0.00,meteohub,2013-08-12 13:02:00,
2013-08-12 06:07:00,42.6,28.0,30.23,SE,146,0.0,2.0,56,0.00,,,0.00,meteohub,2013-08-12 13:07:00,
2013-08-12 06:12:00,42.6,28.0,30.23,SE,142,0.0,1.0,56,0.00,,,0.00,meteohub,2013-08-12 13:12:00,
2013-08-12 06:17:00,42.6,28.0,30.23,SSE,164,0.0,1.0,56,0.00,,,0.00,meteohub,2013-08-12 13:17:00,
2013-08-12 06:22:00,42.4,27.9,30.23,SSE,156,0.0,1.0,56,0.00,,,0.00,meteohub,2013-08-12 13:22:00,
2013-08-12 06:27:00,42.4,27.5,30.23,SSE,147,0.0,2.0,55,0.00,,,0.00,meteohub,2013-08-12 13:27:00,
2013-08-12 06:32:00,42.3,27.7,30.23,SSE,152,0.0,2.0,56,0.00,,,0.00,meteohub,2013-08-12 13:32:00,
2013-08-12 06:37:00,42.3,27.7,30.24,SSE,153,0.0,2.0,56,0.00,,,0.00,meteohub,2013-08-12 13:37:00,
2013-08-12 06:42:00,42.3,27.7,30.24,SSE,167,0.0,1.0,56,0.00,,,0.00,meteohub,2013-08-12 13:42:00,
2013-08-12 06:47:00,42.4,27.5,30.24,SSE,167,0.0,1.0,55,0.00,,,0.00,meteohub,2013-08-12 13:47:00,
2013-08-12 06:52:00,42.8,26.8,30.24,SE,130,1.0,1.0,53,0.00,,,0.00,meteohub,2013-08-12 13:52:00,
2013-08-12 06:57:00,43.2,27.7,30.24,SSE,155,0.0,1.0,54,0.00,,,0.00,meteohub,2013-08-12 13:57:00,
2013-08-12 07:02:00,43.3,27.9,30.24,South,185,0.0,1.0,54,0.00,,,0.00,meteohub,2013-08-12 14:02:00,
2013-08-12 07:07:00,43.5,28.0,30.24,SSE,150,1.0,1.0,54,0.00,,,0.00,meteohub,2013-08-12 14:07:00,
2013-08-12 07:12:00,43.7,28.2,30.24,SE,130,1.0,1.0,54,0.00,,,0.00,meteohub,2013-08-12 14:12:00,
2013-08-12 07:17:00,44.1,28.4,30.25,SE,144,0.0,2.0,54,0.00,,,0.00,meteohub,2013-08-12 14:17:00,
2013-08-12 07:22:00,44.6,28.0,30.25,SE,133,0.0,2.0,52,0.00,,,0.00,meteohub,2013-08-12 14:22:00,
2013-08-12 07:27:00,45.3,28.2,30.24,SSE,154,1.0,2.0,51,0.00,,,0.00,meteohub,2013-08-12 14:27:00,
2013-08-12 07:32:00,46.0,29.5,30.24,SE,136,1.0,2.0,52,0.00,,,0.00,meteohub,2013-08-12 14:32:00,
2013-08-12 07:37:00,46.8,29.7,30.24,SSE,167,0.0,2.0,51,0.00,,,0.00,meteohub,2013-08-12 14:37:00,
2013-08-12 07:42:00,47.8,29.7,30.25,SE,136,1.0,2.0,49,0.00,,,0.00,meteohub,2013-08-12 14:42:00,
2013-08-12 07:47:00,48.9,29.7,30.25,SE,146,1.0,2.0,47,0.00,,,0.00,meteohub,2013-08-12 14:47:00,
2013-08-12 07:52:00,50.4,30.4,30.24,SE,140,0.0,2.0,46,0.00,,,0.00,meteohub,2013-08-12 14:52:00,
2013-08-12 07:57:00,51.6,30.9,30.24,SSE,150,0.0,2.0,45,0.00,,,0.00,meteohub,2013-08-12 14:57:00,
2013-08-12 08:02:00,53.2,31.8,30.24,SSE,154,0.0,2.0,44,0.00,,,0.00,meteohub,2013-08-12 15:02:00,
2013-08-12 08:07:00,54.9,32.2,30.24,SSE,153,0.0,1.0,42,0.00,,,0.00,meteohub,2013-08-12 15:07:00,
2013-08-12 08:12:00,56.7,33.3,30.24,SSE,154,0.0,1.0,41,0.00,,,0.00,meteohub,2013-08-12 15:12:00,
2013-08-12 08:17:00,58.3,33.4,30.24,SSE,153,0.0,1.0,39,0.00,,,0.00,meteohub,2013-08-12 15:17:00,
2013-08-12 08:22:00,59.5,33.3,30.24,SSE,155,0.0,0.0,37,0.00,,,0.00,meteohub,2013-08-12 15:22:00,
2013-08-12 08:27:00,61.3,36.9,30.24,SSE,155,0.0,0.0,40,0.00,,,0.00,meteohub,2013-08-12 15:27:00,
2013-08-12 08:32:00,61.9,36.0,30.25,SSE,155,0.0,0.0,38,0.00,,,0.00,meteohub,2013-08-12 15:32:00,
2013-08-12 08:37:00,61.7,38.3,30.24,SSE,155,0.0,0.0,42,0.00,,,0.00,meteohub,2013-08-12 15:37:00,
2013-08-12 08:42:00,61.5,38.8,30.24,SSE,155,0.0,0.0,43,0.00,,,0.00,meteohub,2013-08-12 15:42:00,
2013-08-12 08:47:00,60.8,41.0,30.24,SSE,155,0.0,0.0,48,0.00,,,0.00,meteohub,2013-08-12 15:47:00,
2013-08-12 08:52:00,59.9,41.2,30.24,NNW,337,0.0,0.0,50,0.00,,,0.00,meteohub,2013-08-12 15:52:00,
2013-08-12 08:57:00,59.5,42.8,30.24,North,11,0.0,0.0,54,0.00,,,0.00,meteohub,2013-08-12 15:57:00,
2013-08-12 09:02:00,59.5,43.3,30.24,North,11,2.0,2.0,55,0.00,,,0.00,meteohub,2013-08-12 16:02:00,
2013-08-12 09:07:00,59.5,43.9,30.23,NNE,32,3.0,3.0,56,0.00,,,0.00,meteohub,2013-08-12 16:07:00,
2013-08-12 09:12:00,59.5,43.9,30.23,NNE,30,3.0,4.0,56,0.00,,,0.00,meteohub,2013-08-12 16:12:00,
2013-08-12 09:17:00,59.5,43.9,30.23,NNE,28,2.0,4.0,56,0.00,,,0.00,meteohub,2013-08-12 16:17:00,
2013-08-12 09:22:00,59.7,44.1,30.23,NNE,20,2.0,4.0,56,0.00,,,0.00,meteohub,2013-08-12 16:22:00,
2013-08-12 09:27:00,59.5,44.8,30.23,NNW,333,1.0,3.0,58,0.00,,,0.00,meteohub,2013-08-12 16:27:00,
2013-08-12 09:32:00,59.2,44.4,30.23,NW,319,2.0,3.0,58,0.00,,,0.00,meteohub,2013-08-12 16:32:00,
2013-08-12 09:37:00,59.2,43.9,30.23,NW,323,2.0,4.0,57,0.00,,,0.00,meteohub,2013-08-12 16:37:00,
2013-08-12 09:42:00,59.4,44.6,30.23,NW,323,3.0,4.0,58,0.00,,,0.00,meteohub,2013-08-12 16:42:00,
2013-08-12 09:47:00,59.4,44.6,30.23,NW,323,2.0,4.0,58,0.00,,,0.00,meteohub,2013-08-12 16:47:00,
2013-08-12 09:52:00,59.5,44.8,30.23,NNW,327,3.0,4.0,58,0.00,,,0.00,meteohub,2013-08-12 16:52:00,
2013-08-12 09:57:00,59.5,45.1,30.23,NW,324,3.0,4.0,59,0.00,,,0.00,meteohub,2013-08-12 16:57:00,
2013-08-12 10:02:00,59.7,45.3,30.23,NW,323,3.0,5.0,59,0.00,,,0.00,meteohub,2013-08-12 17:02:00,
2013-08-12 10:07:00,59.9,45.1,30.23,NNW,333,3.0,5.0,58,0.00,,,0.00,meteohub,2013-08-12 17:07:00,
2013-08-12 10:12:00,59.9,45.1,30.23,NNW,331,3.0,5.0,58,0.00,,,0.00,meteohub,2013-08-12 17:12:00,
2013-08-12 10:17:00,59.9,45.1,30.23,NNW,333,4.0,5.0,58,0.00,,,0.00,meteohub,2013-08-12 17:17:00,
2013-08-12 10:22:00,60.1,46.6,30.23,NE,38,5.0,5.0,61,0.00,,,0.00,meteohub,2013-08-12 17:22:00,
2013-08-12 10:27:00,60.3,45.5,30.23,NNW,329,4.0,6.0,58,0.00,,,0.00,meteohub,2013-08-12 17:27:00,
2013-08-12 10:32:00,60.4,44.6,30.23,NW,326,4.0,6.0,56,0.00,,,0.00,meteohub,2013-08-12 17:32:00,
2013-08-12 10:37:00,60.4,44.2,30.23,NNW,342,5.0,6.0,55,0.00,,,0.00,meteohub,2013-08-12 17:37:00,
2013-08-12 10:42:00,60.6,46.6,30.22,NW,326,5.0,6.0,60,0.00,,,0.00,meteohub,2013-08-12 17:42:00,
2013-08-12 10:47:00,60.8,42.1,30.23,NNW,331,4.0,7.0,50,0.00,,,0.00,meteohub,2013-08-12 17:47:00,
2013-08-12 10:52:00,61.2,41.9,30.23,NNW,331,3.0,7.0,49,0.00,,,0.00,meteohub,2013-08-12 17:52:00,
2013-08-12 10:57:00,61.3,39.2,30.23,NNW,333,5.0,7.0,44,0.00,,,0.00,meteohub,2013-08-12 17:57:00,
2013-08-12 11:02:00,61.5,43.2,30.23,NNW,333,5.0,6.0,51,0.00,,,0.00,meteohub,2013-08-12 18:02:00,
2013-08-12 11:07:00,61.7,44.4,30.23,NNW,330,5.0,6.0,53,0.00,,,0.00,meteohub,2013-08-12 18:07:00,
2013-08-12 11:12:00,61.5,45.7,30.22,NNW,331,5.0,6.0,56,0.00,,,0.00,meteohub,2013-08-12 18:12:00,
2013-08-12 11:17:00,61.5,47.1,30.22,NNW,333,4.0,6.0,59,0.00,,,0.00,meteohub,2013-08-12 18:17:00,
2013-08-12 11:22:00,61.9,46.0,30.22,NNW,331,4.0,6.0,56,0.00,,,0.00,meteohub,2013-08-12 18:22:00,
2013-08-12 11:27:00,62.2,43.9,30.22,NNE,13,5.0,6.0,51,0.00,,,0.00,meteohub,2013-08-12 18:27:00,
2013-08-12 11:32:00,62.4,46.0,30.22,NW,319,5.0,6.0,55,0.00,,,0.00,meteohub,2013-08-12 18:32:00,
2013-08-12 11:37:00,62.4,46.0,30.22,NNW,337,5.0,6.0,55,0.00,,,0.00,meteohub,2013-08-12 18:37:00,
2013-08-12 11:42:00,62.8,45.0,30.22,NNW,330,5.0,7.0,52,0.00,,,0.00,meteohub,2013-08-12 18:42:00,
2013-08-12 11:47:00,63.0,44.6,30.22,NNW,331,5.0,7.0,51,0.00,,,0.00,meteohub,2013-08-12 18:47:00,
2013-08-12 11:52:00,63.0,43.0,30.22,NNW,334,6.0,7.0,48,0.00,,,0.00,meteohub,2013-08-12 18:52:00,
2013-08-12 11:57:00,63.3,41.0,30.22,NW,324,6.0,7.0,44,0.00,,,0.00,meteohub,2013-08-12 18:57:00,
2013-08-12 12:02:00,63.7,44.8,30.22,NNW,330,5.0,7.0,50,0.00,,,0.00,meteohub,2013-08-12 19:02:00,
2013-08-12 12:07:00,63.9,44.8,30.22,NNW,336,6.0,7.0,50,0.00,,,0.00,meteohub,2013-08-12 19:07:00,
2013-08-12 12:12:00,64.0,42.8,30.21,North,350,7.0,7.0,46,0.00,,,0.00,meteohub,2013-08-12 19:12:00,
2013-08-12 12:17:00,64.2,43.5,30.21,NNW,344,5.0,7.0,47,0.00,,,0.00,meteohub,2013-08-12 19:17:00,
2013-08-12 12:22:00,64.6,42.3,30.21,NNE,15,6.0,7.0,44,0.00,,,0.00,meteohub,2013-08-12 19:22:00,
2013-08-12 12:28:00,64.8,43.5,30.21,NNE,31,5.0,7.0,46,0.00,,,0.00,meteohub,2013-08-12 19:28:00,
2013-08-12 12:33:00,64.9,44.8,30.21,NNE,24,4.0,7.0,48,0.00,,,0.00,meteohub,2013-08-12 19:33:00,
2013-08-12 12:38:00,65.1,44.4,30.21,NNW,329,5.0,7.0,47,0.00,,,0.00,meteohub,2013-08-12 19:38:00,
2013-08-12 12:43:00,65.1,42.1,30.21,NNW,333,6.0,6.0,43,0.00,,,0.00,meteohub,2013-08-12 19:43:00,
2013-08-12 12:48:00,65.5,43.0,30.21,North,355,5.0,7.0,44,0.00,,,0.00,meteohub,2013-08-12 19:48:00,
2013-08-12 12:53:00,65.7,45.5,30.21,NNW,333,5.0,7.0,48,0.00,,,0.00,meteohub,2013-08-12 19:53:00,
2013-08-12 12:58:00,65.8,45.0,30.21,NNW,333,6.0,7.0,47,0.00,,,0.00,meteohub,2013-08-12 19:58:00,
2013-08-12 13:03:00,65.8,45.0,30.20,NNW,336,7.0,7.0,47,0.00,,,0.00,meteohub,2013-08-12 20:03:00,
2013-08-12 13:08:00,66.0,45.1,30.21,NW,319,5.0,7.0,47,0.00,,,0.00,meteohub,2013-08-12 20:08:00,
2013-08-12 13:13:00,66.4,45.5,30.20,NNW,337,6.0,8.0,47,0.00,,,0.00,meteohub,2013-08-12 20:13:00,
2013-08-12 13:18:00,66.6,44.1,30.20,NNW,338,8.0,9.0,44,0.00,,,0.00,meteohub,2013-08-12 20:18:00,
2013-08-12 13:23:00,66.7,44.8,30.20,NNW,333,8.0,9.0,45,0.00,,,0.00,meteohub,2013-08-12 20:23:00,
2013-08-12 13:28:00,66.6,44.6,30.20,NNW,330,9.0,10.0,45,0.00,,,0.00,meteohub,2013-08-12 20:28:00,
2013-08-12 13:33:00,66.7,44.8,30.20,NNW,331,8.0,11.0,45,0.00,,,0.00,meteohub,2013-08-12 20:33:00,
2013-08-12 13:38:00,66.7,45.9,30.20,NW,326,7.0,11.0,47,0.00,,,0.00,meteohub,2013-08-12 20:38:00,
2013-08-12 13:43:00,66.7,44.1,30.19,NNW,337,8.0,11.0,44,0.00,,,0.00,meteohub,2013-08-12 20:43:00,
2013-08-12 13:48:00,66.9,45.0,30.19,NNW,340,11.0,12.0,45,0.00,,,0.00,meteohub,2013-08-12 20:48:00,
2013-08-12 13:53:00,66.9,46.6,30.19,NNW,333,12.0,14.0,48,0.00,,,0.00,meteohub,2013-08-12 20:53:00,
2013-08-12 13:58:00,67.1,47.3,30.19,NNW,329,12.0,16.0,49,0.00,,,0.00,meteohub,2013-08-12 20:58:00,
2013-08-12 14:03:00,67.3,48.0,30.19,NNW,333,11.0,16.0,50,0.00,,,0.00,meteohub,2013-08-12 21:03:00,
2013-08-12 14:08:00,67.3,46.4,30.19,NNW,339,12.0,16.0,47,0.00,,,0.00,meteohub,2013-08-12 21:08:00,
2013-08-12 14:13:00,67.5,44.8,30.19,NNW,336,13.0,16.0,44,0.00,,,0.00,meteohub,2013-08-12 21:13:00,
2013-08-12 14:18:00,67.5,50.2,30.19,NNW,333,11.0,17.0,54,0.00,,,0.00,meteohub,2013-08-12 21:18:00,
2013-08-12 14:23:00,67.6,48.9,30.19,North,350,14.0,17.0,51,0.00,,,0.00,meteohub,2013-08-12 21:23:00,
2013-08-12 14:29:00,67.6,43.7,30.19,NNW,339,13.0,18.0,42,0.00,,,0.00,meteohub,2013-08-12 21:29:00,
2013-08-12 14:34:00,67.6,49.8,30.19,NNW,337,9.0,18.0,53,0.00,,,0.00,meteohub,2013-08-12 21:34:00,
2013-08-12 14:39:00,68.4,43.7,30.19,NNE,31,13.0,18.0,41,0.00,,,0.00,meteohub,2013-08-12 21:39:00,
2013-08-12 14:44:00,68.2,47.7,30.19,NNW,338,12.0,19.0,48,0.00,,,0.00,meteohub,2013-08-12 21:44:00,
2013-08-12 14:49:00,67.8,50.0,30.19,NNE,22,12.0,19.0,53,0.00,,,0.00,meteohub,2013-08-12 21:49:00,
2013-08-12 14:54:00,68.0,46.4,30.19,North,5,18.0,18.0,46,0.00,,,0.00,meteohub,2013-08-12 21:54:00,
2013-08-12 14:59:00,68.4,46.8,30.19,NNE,32,11.0,18.0,46,0.00,,,0.00,meteohub,2013-08-12 21:59:00,
2013-08-12 15:04:00,68.4,46.2,30.19,NNW,338,10.0,18.0,45,0.00,,,0.00,meteohub,2013-08-12 22:04:00,
2013-08-12 15:09:00,68.4,47.8,30.19,NNE,28,14.0,19.0,48,0.00,,,0.00,meteohub,2013-08-12 22:09:00,
2013-08-12 15:14:00,68.4,50.0,30.19,NNW,346,14.0,19.0,52,0.00,,,0.00,meteohub,2013-08-12 22:14:00,
2013-08-12 15:19:00,68.9,44.2,30.19,NNW,339,1.0,19.0,41,0.00,,,0.00,meteohub,2013-08-12 22:19:00,
2013-08-12 15:24:00,69.3,46.9,30.19,NW,325,6.0,18.0,45,0.00,,,0.00,meteohub,2013-08-12 22:24:00,
2013-08-12 15:29:00,70.0,45.1,30.19,WSW,253,1.0,17.0,41,0.00,,,0.00,meteohub,2013-08-12 22:29:00,
2013-08-12 15:34:00,70.7,41.7,30.18,NNE,27,9.0,14.0,35,0.00,,,0.00,meteohub,2013-08-12 22:34:00,
2013-08-12 15:39:00,71.2,45.0,30.18,ENE,57,4.0,14.0,39,0.00,,,0.00,meteohub,2013-08-12 22:39:00,
2013-08-12 15:44:00,72.3,39.2,30.18,NW,306,2.0,10.0,30,0.00,,,0.00,meteohub,2013-08-12 22:44:00,
2013-08-12 15:49:00,73.6,41.0,30.19,South,187,4.0,10.0,31,0.00,,,0.00,meteohub,2013-08-12 22:49:00,
2013-08-12 15:54:00,74.8,40.5,30.18,NNE,22,2.0,7.0,29,0.00,,,0.00,meteohub,2013-08-12 22:54:00,
2013-08-12 15:59:00,75.7,40.3,30.18,NNW,328,1.0,13.0,28,0.00,,,0.00,meteohub,2013-08-12 22:59:00,
2013-08-12 16:04:00,76.1,40.6,30.19,NE,39,1.0,13.0,28,0.00,,,0.00,meteohub,2013-08-12 23:04:00,
2013-08-12 16:10:00,76.5,34.9,30.18,NW,311,3.0,6.0,22,0.00,,,0.00,meteohub,2013-08-12 23:10:00,
2013-08-12 16:15:00,76.5,39.9,30.18,SE,133,0.0,8.0,27,0.00,,,0.00,meteohub,2013-08-12 23:15:00,
2013-08-12 16:20:00,76.8,40.3,30.18,WSW,238,0.0,8.0,27,0.00,,,0.00,meteohub,2013-08-12 23:20:00,
2013-08-12 16:25:00,77.4,39.7,30.18,SW,236,5.0,8.0,26,0.00,,,0.00,meteohub,2013-08-12 23:25:00,
2013-08-12 16:30:00,76.8,38.3,30.18,ESE,115,0.0,6.0,25,0.00,,,0.00,meteohub,2013-08-12 23:30:00,
2013-08-12 16:35:00,77.2,38.7,30.18,NW,322,2.0,6.0,25,0.00,,,0.00,meteohub,2013-08-12 23:35:00,
2013-08-12 16:40:00,76.8,40.3,30.18,SSW,194,1.0,7.0,27,0.00,,,0.00,meteohub,2013-08-12 23:40:00,
2013-08-12 16:45:00,76.6,40.1,30.18,SSW,203,0.0,7.0,27,0.00,,,0.00,meteohub,2013-08-12 23:45:00,
2013-08-12 16:50:00,76.6,40.1,30.18,SW,214,0.0,9.0,27,0.00,,,0.00,meteohub,2013-08-12 23:50:00,
2013-08-12 16:55:00,76.8,38.3,30.18,South,176,0.0,9.0,25,0.00,,,0.00,meteohub,2013-08-12 23:55:00,
2013-08-12 17:00:00,76.6,37.2,30.18,East,84,2.0,9.0,24,0.00,,,0.00,meteohub,2013-08-13 00:00:00,
2013-08-12 17:05:00,76.5,39.0,30.18,ESE,116,1.0,6.0,26,0.00,,,0.00,meteohub,2013-08-13 00:05:00,
2013-08-12 17:10:00,76.8,41.2,30.18,ESE,109,1.0,6.0,28,0.00,,,0.00,meteohub,2013-08-13 00:10:00,
2013-08-12 17:15:00,76.5,41.0,30.18,ESE,119,2.0,4.0,28,0.00,,,0.00,meteohub,2013-08-13 00:15:00,
2013-08-12 17:20:00,76.5,39.9,30.18,SSW,213,1.0,5.0,27,0.00,,,0.00,meteohub,2013-08-13 00:20:00,
2013-08-12 17:25:00,76.3,41.7,30.18,SE,136,3.0,5.0,29,0.00,,,0.00,meteohub,2013-08-13 00:25:00,
2013-08-12 17:30:00,75.9,39.6,30.18,SSW,198,0.0,8.0,27,0.00,,,0.00,meteohub,2013-08-13 00:30:00,
2013-08-12 17:35:00,75.9,38.7,30.18,East,94,0.0,8.0,26,0.00,,,0.00,meteohub,2013-08-13 00:35:00,
2013-08-12 17:40:00,76.1,39.7,30.18,SE,144,0.0,8.0,27,0.00,,,0.00,meteohub,2013-08-13 00:40:00,
2013-08-12 17:45:00,76.3,38.8,30.18,NW,307,0.0,8.0,26,0.00,,,0.00,meteohub,2013-08-13 00:45:00,
2013-08-12 17:50:00,76.3,39.9,30.18,ESE,104,0.0,8.0,27,0.00,,,0.00,meteohub,2013-08-13 00:50:00,
2013-08-12 17:55:00,76.1,38.7,30.18,ESE,119,0.0,4.0,26,0.00,,,0.00,meteohub,2013-08-13 00:55:00,
2013-08-12 18:00:00,75.4,41.7,30.18,NE,35,0.0,4.0,30,0.00,,,0.00,meteohub,2013-08-13 01:00:00,
2013-08-12 18:05:00,74.7,38.5,30.18,NW,319,0.0,3.0,27,0.00,,,0.00,meteohub,2013-08-13 01:05:00,
2013-08-12 18:10:00,73.8,38.7,30.18,ESE,112,1.0,5.0,28,0.00,,,0.00,meteohub,2013-08-13 01:10:00,
2013-08-12 18:15:00,72.9,36.9,30.18,NW,313,1.0,6.0,27,0.00,,,0.00,meteohub,2013-08-13 01:15:00,
2013-08-12 18:21:00,72.3,36.5,30.18,SSW,199,3.0,6.0,27,0.00,,,0.00,meteohub,2013-08-13 01:21:00,
2013-08-12 18:26:00,72.0,36.1,30.18,SSE,152,1.0,6.0,27,0.00,,,0.00,meteohub,2013-08-13 01:26:00,
2013-08-12 18:31:00,71.4,37.6,30.18,WNW,299,0.0,5.0,29,0.00,,,0.00,meteohub,2013-08-13 01:31:00,
2013-08-12 18:36:00,71.4,37.6,30.19,SE,140,0.0,4.0,29,0.00,,,0.00,meteohub,2013-08-13 01:36:00,
2013-08-12 18:41:00,71.8,36.9,30.19,SSE,159,2.0,5.0,28,0.00,,,0.00,meteohub,2013-08-13 01:41:00,
2013-08-12 18:46:00,72.0,36.1,30.19,SSW,202,0.0,5.0,27,0.00,,,0.00,meteohub,2013-08-13 01:46:00,
2013-08-12 18:51:00,71.8,36.0,30.19,SSE,168,1.0,5.0,27,0.00,,,0.00,meteohub,2013-08-13 01:51:00,
2013-08-12 18:56:00,71.8,38.7,30.19,NNW,329,0.0,5.0,30,0.00,,,0.00,meteohub,2013-08-13 01:56:00,
2013-08-12 19:01:00,71.8,36.9,30.19,ESE,121,0.0,5.0,28,0.00,,,0.00,meteohub,2013-08-13 02:01:00,
2013-08-12 19:06:00,71.1,36.3,30.19,SE,146,2.0,4.0,28,0.00,,,0.00,meteohub,2013-08-13 02:06:00,
2013-08-12 19:11:00,70.3,36.5,30.19,ESE,117,0.0,2.0,29,0.00,,,0.00,meteohub,2013-08-13 02:11:00,
2013-08-12 19:16:00,69.6,36.0,30.19,SSW,207,3.0,3.0,29,0.00,,,0.00,meteohub,2013-08-13 02:16:00,
2013-08-12 19:21:00,69.3,36.5,30.19,SSE,154,1.0,4.0,30,0.00,,,0.00,meteohub,2013-08-13 02:21:00,
2013-08-12 19:26:00,68.5,36.7,30.20,ESE,120,0.0,4.0,31,0.00,,,0.00,meteohub,2013-08-13 02:26:00,
2013-08-12 19:31:00,68.2,37.2,30.19,SSE,164,1.0,5.0,32,0.00,,,0.00,meteohub,2013-08-13 02:31:00,
2013-08-12 19:36:00,67.6,37.6,30.20,SE,125,0.0,5.0,33,0.00,,,0.00,meteohub,2013-08-13 02:36:00,
2013-08-12 19:41:00,67.3,37.2,30.20,SSE,147,0.0,2.0,33,0.00,,,0.00,meteohub,2013-08-13 02:41:00,
2013-08-12 19:46:00,66.7,37.4,30.20,South,181,0.0,2.0,34,0.00,,,0.00,meteohub,2013-08-13 02:46:00,
2013-08-12 19:51:00,66.2,37.8,30.21,South,181,0.0,1.0,35,0.00,,,0.00,meteohub,2013-08-13 02:51:00,
2013-08-12 19:54:00,66.0,38.3,30.21,South,180,0.0,1.0,36,0.00,,,0.00,meteohub,2013-08-13 02:54:00,
2013-08-12 19:59:00,65.5,37.8,30.21,South,180,0.0,1.0,36,0.00,,,0.00,meteohub,2013-08-13 02:59:00,
2013-08-12 20:04:00,64.9,38.1,30.21,East,99,0.0,0.0,37,0.00,,,0.00,meteohub,2013-08-13 03:04:00,
2013-08-12 20:09:00,64.6,38.5,30.21,East,100,0.0,0.0,38,0.00,,,0.00,meteohub,2013-08-13 03:09:00,
2013-08-12 20:14:00,64.2,38.7,30.21,East,101,0.0,0.0,39,0.00,,,0.00,meteohub,2013-08-13 03:14:00,
2013-08-12 20:19:00,63.7,38.8,30.22,East,101,0.0,0.0,40,0.00,,,0.00,meteohub,2013-08-13 03:19:00,
2013-08-12 20:24:00,63.3,38.7,30.22,SSE,159,0.0,0.0,40,0.00,,,0.00,meteohub,2013-08-13 03:24:00,
2013-08-12 20:29:00,63.1,38.5,30.22,East,94,0.0,1.0,40,0.00,,,0.00,meteohub,2013-08-13 03:29:00,
2013-08-12 20:34:00,62.8,38.7,30.22,SSE,154,0.0,1.0,41,0.00,,,0.00,meteohub,2013-08-13 03:34:00,
2013-08-12 20:39:00,62.4,38.5,30.22,SE,134,0.0,1.0,41,0.00,,,0.00,meteohub,2013-08-13 03:39:00,
2013-08-12 20:44:00,62.2,38.8,30.22,SE,138,1.0,1.0,42,0.00,,,0.00,meteohub,2013-08-13 03:44:00,
2013-08-12 20:52:00,62.1,38.7,30.22,East,92,0.0,3.0,42,0.00,,,0.00,meteohub,2013-08-13 03:52:00,
2013-08-12 20:57:00,62.1,38.7,30.22,East,97,1.0,3.0,42,0.00,,,0.00,meteohub,2013-08-13 03:57:00,
2013-08-12 21:01:00,61.9,38.5,30.23,ESE,116,0.0,2.0,42,0.00,,,0.00,meteohub,2013-08-13 04:01:00,
2013-08-12 21:02:00,61.9,38.5,30.23,ESE,112,0.0,2.0,42,0.00,,,0.00,meteohub,2013-08-13 04:02:00,
2013-08-12 21:04:00,61.9,38.5,30.23,SSE,153,0.0,2.0,42,0.00,,,0.00,meteohub,2013-08-13 04:04:00,
2013-08-12 21:09:00,61.5,38.8,30.23,East,93,0.0,2.0,43,0.00,,,0.00,meteohub,2013-08-13 04:09:00,
2013-08-12 21:14:00,61.2,38.5,30.23,SE,134,0.0,1.0,43,0.00,,,0.00,meteohub,2013-08-13 04:14:00,
2013-08-12 21:19:00,61.0,38.8,30.23,SSE,166,0.0,1.0,44,0.00,,,0.00,meteohub,2013-08-13 04:19:00,
2013-08-12 21:24:00,60.6,38.7,30.23,SSE,162,0.0,1.0,44,0.00,,,0.00,meteohub,2013-08-13 04:24:00,
2013-08-12 21:29:00,60.4,38.5,30.23,SSW,200,0.0,1.0,44,0.00,,,0.00,meteohub,2013-08-13 04:29:00,
2013-08-12 21:34:00,60.4,38.5,30.23,SE,128,0.0,1.0,44,0.00,,,0.00,meteohub,2013-08-13 04:34:00,
2013-08-12 21:39:00,60.3,38.3,30.24,SSE,161,0.0,1.0,44,0.00,,,0.00,meteohub,2013-08-13 04:39:00,
2013-08-12 21:44:00,60.4,38.5,30.24,ESE,117,0.0,1.0,44,0.00,,,0.00,meteohub,2013-08-13 04:44:00,
2013-08-12 21:49:00,60.4,38.5,30.24,East,100,1.0,2.0,44,0.00,,,0.00,meteohub,2013-08-13 04:49:00,
2013-08-12 21:54:00,60.4,38.5,30.24,East,98,1.0,2.0,44,0.00,,,0.00,meteohub,2013-08-13 04:54:00,
2013-08-12 21:59:00,60.3,38.3,30.24,ESE,122,0.0,2.0,44,0.00,,,0.00,meteohub,2013-08-13 04:59:00,
2013-08-12 22:04:00,60.1,38.1,30.24,East,96,0.0,2.0,44,0.00,,,0.00,meteohub,2013-08-13 05:04:00,
2013-08-12 22:09:00,59.9,37.9,30.24,ESE,121,0.0,2.0,44,0.00,,,0.00,meteohub,2013-08-13 05:09:00,
2013-08-12 22:14:00,59.7,37.8,30.23,SE,128,1.0,1.0,44,0.00,,,0.00,meteohub,2013-08-13 05:14:00,
2013-08-12 22:19:00,59.4,37.9,30.23,SE,130,0.0,1.0,45,0.00,,,0.00,meteohub,2013-08-13 05:19:00,
2013-08-12 22:24:00,59.4,37.9,30.23,SE,140,0.0,1.0,45,0.00,,,0.00,meteohub,2013-08-13 05:24:00,
2013-08-12 22:29:00,59.2,37.9,30.23,SE,142,0.0,1.0,45,0.00,,,0.00,meteohub,2013-08-13 05:29:00,
2013-08-12 22:34:00,58.8,37.6,30.23,East,100,0.0,1.0,45,0.00,,,0.00,meteohub,2013-08-13 05:34:00,
2013-08-12 22:39:00,58.6,37.9,30.23,East,96,0.0,1.0,46,0.00,,,0.00,meteohub,2013-08-13 05:39:00,
2013-08-12 22:45:00,58.3,38.1,30.23,East,96,0.0,2.0,47,0.00,,,0.00,meteohub,2013-08-13 05:45:00,
2013-08-12 22:50:00,57.6,37.9,30.23,East,96,0.0,2.0,48,0.00,,,0.00,meteohub,2013-08-13 05:50:00,
2013-08-12 22:55:00,57.0,37.6,30.24,East,96,0.0,1.0,48,0.00,,,0.00,meteohub,2013-08-13 05:55:00,
2013-08-12 23:00:00,56.8,37.9,30.24,East,97,0.0,1.0,49,0.00,,,0.00,meteohub,2013-08-13 06:00:00,
2013-08-12 23:05:00,56.7,37.8,30.25,East,97,0.0,1.0,49,0.00,,,0.00,meteohub,2013-08-13 06:05:00,
2013-08-12 23:10:00,56.5,37.6,30.24,East,97,0.0,1.0,49,0.00,,,0.00,meteohub,2013-08-13 06:10:00,
2013-08-12 23:15:00,56.1,36.7,30.24,SSW,199,0.0,1.0,48,0.00,,,0.00,meteohub,2013-08-13 06:15:00,
2013-08-12 23:20:00,55.9,37.0,30.24,South,171,0.0,1.0,49,0.00,,,0.00,meteohub,2013-08-13 06:20:00,
2013-08-12 23:25:00,55.8,36.9,30.24,SE,144,1.0,1.0,49,0.00,,,0.00,meteohub,2013-08-13 06:25:00,
2013-08-12 23:30:00,55.2,36.9,30.24,SSE,159,1.0,2.0,50,0.00,,,0.00,meteohub,2013-08-13 06:30:00,
2013-08-12 23:35:00,55.0,36.7,30.24,SSE,155,1.0,2.0,50,0.00,,,0.00,meteohub,2013-08-13 06:35:00,
2013-08-12 23:40:00,54.7,36.9,30.25,SSE,164,0.0,3.0,51,0.00,,,0.00,meteohub,2013-08-13 06:40:00,
2013-08-12 23:45:00,54.1,36.9,30.25,SSE,160,1.0,3.0,52,0.00,,,0.00,meteohub,2013-08-13 06:45:00,
2013-08-12 23:50:00,54.0,36.7,30.25,SSE,161,0.0,3.0,52,0.00,,,0.00,meteohub,2013-08-13 06:50:00,
2013-08-12 23:55:00,53.6,36.9,30.25,SSE,163,0.0,2.0,53,0.00,,,0.00,meteohub,2013-08-13 06:55:00,